Zurück zum Katalog

STARLINK-32268

AktivKommunikationVLEO
NORAD 60372·PAYLOAD·🇺🇸 United States

Gestartet Aug 4, 2024 von Vandenberg Space Force Base

Loading…

Nächste Überflüge (nächste 24 Stunden)

TLE

AktuellSource: CelesTrak SupGP

Epoche: Sep 14, 2026, 13:57 UTC

1 60372C 24138T   26257.58173611  .00063782  00000+0  18850-2 0  2576
2 60372  53.1571 151.3867 0001231  94.0021 120.6935 15.34349982    11

Verfolge STARLINK-32268 in Echtzeit mit AllMySat

Download on the App Store